Location: Lake Sonoma
(38.7200°N, 123.0564°W)
Time: 15:52:18
(UTC-07:00)

ISS - Visible Passes

Search period start: 19 April 2015 00:00
Search period end: 29 April 2015 00:00
Orbit: 395 x 403 km, 51.6° (Epoch: 19 April)

Date Brightness Start Highest point End Pass type
(mag) Time Alt. Az. Time Alt. Az. Time Alt. Az.
19 Apr -1.7 20:33:23 10° NNW 20:36:08 25° NNE 20:38:46 11° E visible
19 Apr -1.3 22:09:33 10° WNW 22:11:19 26° W 22:11:19 26° W visible
20 Apr -3.4 21:15:25 10° NW 21:18:40 83° SW 21:19:37 43° SE visible
21 Apr -2.8 20:21:27 10° NW 20:24:37 47° NE 20:27:46 10° ESE visible
21 Apr -0.9 21:58:36 10° W 22:00:28 16° SW 22:00:28 16° SW visible
22 Apr -2.0 21:03:49 10° WNW 21:06:47 33° SW 21:08:47 17° S visible
24 Apr -0.7 20:52:40 10° W 20:54:34 14° SW 20:56:23 10° SSW visible
